| time (UTC) | temp C | wind direction | speed KPH | gust KPH | rain 1hr cm | rain 24hr cm | rain mn cm | humidity % | barometer mb |
| 20260505174133 | 9 | 280 | 11.3 | 16.1 | 0.00 | 0.00 | 0.00 | 57 | 1011.1 |
| 20260505173127 | 9 | 285 | 12.9 | 16.1 | 0.00 | 0.00 | 0.00 | 56 | 1011.2 |
| 20260505172150 | 9 | 254 | 11.3 | 16.1 | 0.00 | 0.00 | 0.00 | 58 | 1011.2 |
| 20260505171144 | 9 | 308 | 8.0 | 17.7 | 0.00 | 0.00 | 0.00 | 60 | 1011.1 |
| 20260505170138 | 9 | 273 | 12.9 | 17.7 | 0.00 | 0.00 | 0.00 | 54 | 1011.1 |
| 20260505165131 | 9 | 250 | 14.5 | 19.3 | 0.00 | 0.00 | 0.00 | 59 | 1011.1 |
| 20260505164210 | 10 | 271 | 12.9 | 19.3 | 0.00 | 0.00 | 0.00 | 57 | 1011.1 |
| 20260505163202 | 9 | 248 | 14.5 | 20.9 | 0.00 | 0.00 | 0.00 | 59 | 1011.0 |
| 20260505162146 | 10 | 252 | 11.3 | 20.9 | 0.00 | 0.00 | 0.00 | 54 | 1011.0 |
| 20260505161142 | 10 | 254 | 14.5 | 20.9 | 0.00 | 0.00 | 0.00 | 55 | 1011.1 |
| 20260505160137 | 10 | 272 | 12.9 | 22.5 | 0.00 | 0.00 | 0.00 | 54 | 1011.2 |
| 20260505153127 | 10 | 284 | 17.7 | 20.9 | 0.00 | 0.00 | 0.00 | 52 | 1011.2 |
| 20260505152143 | 10 | 273 | 14.5 | 19.3 | 0.00 | 0.00 | 0.00 | 53 | 1011.2 |
| 20260505151133 | 10 | 275 | 9.7 | 20.9 | 0.00 | 0.00 | 0.00 | 51 | 1011.1 |
| 20260505150151 | 9 | 283 | 16.1 | 22.5 | 0.00 | 0.00 | 0.00 | 55 | 1011.2 |
| 20260505140146 | 9 | 284 | 14.5 | 24.1 | 0.00 | 0.00 | 0.00 | 52 | 1011.3 |
| 20260505130154 | 9 | 287 | 17.7 | 32.2 | 0.00 | 0.00 | 0.00 | 52 | 1011.2 |
| 20260505124146 | 9 | 290 | 19.3 | 32.2 | 0.00 | 0.00 | 0.00 | 53 | 1011.4 |
| 20260505123140 | 9 | 297 | 19.3 | 29.0 | 0.00 | 0.00 | 0.00 | 58 | 1011.4 |
| 20260505122130 | 9 | 297 | 11.3 | 27.4 | 0.00 | 0.00 | 0.00 | 58 | 1011.4 |
| 20260505121152 | 9 | 329 | 19.3 | 32.2 | 0.00 | 0.00 | 0.00 | 56 | 1011.4 |
| 20260505120127 | 9 | 328 | 16.1 | 25.7 | 0.00 | 0.00 | 0.00 | 59 | 1011.3 |
| 20260505115140 | 9 | 286 | 17.7 | 29.0 | 0.00 | 0.00 | 0.00 | 60 | 1011.3 |
| 20260505114131 | 9 | 276 | 16.1 | 32.2 | 0.00 | 0.00 | 0.00 | 59 | 1011.4 |
| 20260505113134 | 9 | 240 | 19.3 | 27.4 | 0.00 | 0.00 | 0.00 | 59 | 1011.3 |
| 20260505112127 | 9 | 280 | 16.1 | 27.4 | 0.00 | 0.00 | 0.00 | 60 | 1011.3 |
| 20260505111150 | 9 | 284 | 16.1 | 27.4 | 0.00 | 0.00 | 0.00 | 59 | 1011.3 |
| 20260505110142 | 9 | 294 | 17.7 | 25.7 | 0.00 | 0.00 | 0.00 | 56 | 1011.3 |
| 20260505102137 | 9 | 303 | 12.9 | 27.4 | 0.00 | 0.00 | 0.00 | 55 | 1011.1 |
| 20260505101156 | 9 | 271 | 12.9 | 27.4 | 0.00 | 0.00 | 0.00 | 59 | 1011.2 |
| 20260505100128 | 8 | 284 | 16.1 | 27.4 | 0.00 | 0.00 | 0.00 | 57 | 1011.1 |
| 20260505095127 | 8 | 269 | 17.7 | 32.2 | 0.00 | 0.00 | 0.00 | 59 | 1011.2 |
| 20260505094139 | 8 | 279 | 20.9 | 29.0 | 0.00 | 0.00 | 0.00 | 57 | 1011.3 |
| 20260505093132 | 8 | 278 | 14.5 | 24.1 | 0.00 | 0.00 | 0.00 | 55 | 1011.0 |
| 20260505092132 | 8 | 252 | 16.1 | 25.7 | 0.00 | 0.00 | 0.00 | 57 | 1011.0 |
| 20260505091145 | 8 | 315 | 8.0 | 27.4 | 0.00 | 0.00 | 0.00 | 55 | 1011.0 |
| 20260505090137 | 8 | 307 | 22.5 | 29.0 | 0.00 | 0.00 | 0.00 | 55 | 1011.1 |
| 20260505085130 | 8 | 267 | 19.3 | 27.4 | 0.00 | 0.00 | 0.00 | 53 | 1010.9 |
| 20260505084152 | 8 | 290 | 12.9 | 24.1 | 0.00 | 0.00 | 0.00 | 54 | 1010.8 |
| 20260505083204 | 8 | 281 | 14.5 | 24.1 | 0.00 | 0.00 | 0.00 | 53 | 1010.6 |
| 20260505082141 | 8 | 308 | 11.3 | 24.1 | 0.00 | 0.00 | 0.00 | 54 | 1010.4 |
| 20260505081127 | 8 | 312 | 12.9 | 25.7 | 0.00 | 0.00 | 0.00 | 53 | 1010.4 |
| 20260505080145 | 8 | 275 | 12.9 | 25.7 | 0.00 | 0.00 | 0.00 | 55 | 1010.4 |
| 20260505075204 | 8 | 290 | 16.1 | 25.7 | 0.00 | 0.00 | 0.00 | 56 | 1010.3 |
| 20260505074134 | 8 | 348 | 8.0 | 29.0 | 0.00 | 0.00 | 0.00 | 52 | 1010.3 |
| 20260505073145 | 8 | 317 | 9.7 | 30.6 | 0.00 | 0.00 | 0.00 | 54 | 1010.3 |
| 20260505072147 | 8 | 297 | 12.9 | 30.6 | 0.00 | 0.00 | 0.00 | 52 | 1010.3 |
| 20260505071155 | 8 | 303 | 14.5 | 25.7 | 0.00 | 0.00 | 0.00 | 55 | 1010.2 |
| 20260505070138 | 8 | 275 | 8.0 | 17.7 | 0.00 | 0.00 | 0.00 | 54 | 1010.1 |
| 20260505065152 | 8 | 325 | 9.7 | 17.7 | 0.00 | 0.00 | 0.00 | 55 | 1010.1 |
| 20260505064134 | 8 | 325 | 9.7 | 16.1 | 0.00 | 0.00 | 0.00 | 55 | 1010.0 |
| 20260505063145 | 8 | 325 | 8.0 | 20.9 | 0.00 | 0.00 | 0.00 | 54 | 1009.9 |
| 20260505062133 | 8 | 339 | 9.7 | 17.7 | 0.00 | 0.00 | 0.00 | 57 | 1009.9 |
| 20260505061132 | 7 | 303 | 8.0 | 17.7 | 0.00 | 0.00 | 0.00 | 56 | 1009.9 |
| 20260505060144 | 7 | 313 | 12.9 | 24.1 | 0.00 | 0.00 | 0.00 | 58 | 1009.9 |
| 20260505055147 | 7 | 333 | 14.5 | 22.5 | 0.00 | 0.00 | 0.00 | 59 | 1009.8 |
| 20260505054136 | 8 | 284 | 6.4 | 14.5 | 0.00 | 0.00 | 0.00 | 60 | 1009.8 |
| 20260505053129 | 7 | 17 | 0.0 | 9.7 | 0.00 | 0.00 | 0.00 | 61 | 1009.7 |
| 20260505052149 | 7 | 15 | 1.6 | 8.0 | 0.00 | 0.00 | 0.00 | 62 | 1009.6 |
| 20260505051140 | 7 | 328 | 0.0 | 12.9 | 0.00 | 0.00 | 0.00 | 64 | 1009.5 |
| 20260505050126 | 6 | 33 | 3.2 | 16.1 | 0.00 | 0.00 | 0.00 | 73 | 1009.4 |
| 20260505041141 | 4 | 5 | 3.2 | 8.0 | 0.00 | 0.00 | 0.00 | 77 | 1009.1 |
| 20260505040140 | 5 | 19 | 0.0 | 4.8 | 0.00 | 0.00 | 0.00 | 75 | 1009.0 |
| 20260505035133 | 5 | 9 | 3.2 | 6.4 | 0.00 | 0.00 | 0.00 | 73 | 1008.9 |
| 20260505034145 | 6 | 355 | 1.6 | 11.3 | 0.00 | 0.00 | 0.00 | 73 | 1008.8 |
| 20260505033148 | 6 | 322 | 3.2 | 8.0 | 0.00 | 0.00 | 0.00 | 73 | 1008.8 |
| 20260505032133 | 6 | 338 | 4.8 | 12.9 | 0.00 | 0.00 | 0.00 | 73 | 1008.6 |
| 20260505031153 | 6 | 323 | 4.8 | 14.5 | 0.00 | 0.00 | 0.00 | 73 | 1008.6 |
| 20260505030147 | 6 | 317 | 6.4 | 14.5 | 0.00 | 0.00 | 0.00 | 73 | 1008.5 |
| 20260505025134 | 6 | 327 | 6.4 | 19.3 | 0.00 | 0.00 | 0.00 | 73 | 1008.4 |
| 20260505024155 | 6 | 319 | 8.0 | 16.1 | 0.00 | 0.00 | 0.00 | 74 | 1008.4 |
| 20260505023126 | 7 | 9 | 8.0 | 19.3 | 0.00 | 0.00 | 0.00 | 74 | 1008.6 |
| 20260505022137 | 7 | 303 | 9.7 | 22.5 | 0.00 | 0.00 | 0.00 | 75 | 1008.5 |
| 20260505021128 | 7 | 297 | 11.3 | 27.4 | 0.00 | 0.00 | 0.00 | 75 | 1008.5 |
| 20260505020200 | 7 | 325 | 19.3 | 29.0 | 0.00 | 0.00 | 0.00 | 76 | 1008.4 |
| 20260505015211 | 7 | 311 | 14.5 | 30.6 | 0.00 | 0.00 | 0.00 | 76 | 1008.4 |
| 20260505014131 | 7 | 275 | 17.7 | 33.8 | 0.00 | 0.00 | 0.00 | 77 | 1008.4 |
| 20260505013140 | 7 | 313 | 22.5 | 33.8 | 0.00 | 0.00 | 0.00 | 78 | 1008.3 |
| 20260505012137 | 7 | 310 | 19.3 | 27.4 | 0.00 | 0.00 | 0.00 | 79 | 1008.3 |
| 20260505011126 | 7 | 296 | 19.3 | 32.2 | 0.00 | 0.00 | 0.00 | 85 | 1008.2 |
| 20260505010136 | 8 | 283 | 22.5 | 41.8 | 0.00 | 0.00 | 0.00 | 90 | 1008.2 |
| 20260505005139 | 8 | 277 | 27.4 | 41.8 | 0.00 | 0.00 | 0.00 | 90 | 1008.3 |
| 20260505004150 | 8 | 252 | 25.7 | 41.8 | 0.00 | 0.00 | 0.00 | 90 | 1008.3 |
| 20260505003139 | 8 | 289 | 27.4 | 45.1 | 0.00 | 0.00 | 0.00 | 91 | 1008.3 |
| 20260505002132 | 8 | 273 | 29.0 | 43.5 | 0.00 | 0.00 | 0.00 | 91 | 1008.3 |
| 20260505001127 | 8 | 288 | 33.8 | 45.1 | 0.00 | 0.00 | 0.00 | 91 | 1008.2 |
| 20260505000136 | 8 | 293 | 27.4 | 45.1 | 0.00 | 0.00 | 0.00 | 91 | 1008.1 |
| 20260504235134 | 8 | 285 | 35.4 | 48.3 | 0.00 | 0.00 | 0.00 | 91 | 1008.1 |
| 20260504234139 | 8 | 288 | 30.6 | 46.7 | 0.00 | 0.00 | 0.00 | 90 | 1008.2 |
| 20260504233132 | 8 | 286 | 29.0 | 53.1 | 0.00 | 0.00 | 0.00 | 90 | 1008.0 |
| 20260504232150 | 8 | 297 | 33.8 | 48.3 | 0.00 | 0.00 | 0.00 | 90 | 1008.0 |
| 20260504231149 | 8 | 269 | 24.1 | 41.8 | 0.00 | 0.00 | 0.00 | 90 | 1008.2 |
| 20260504230200 | 8 | 277 | 29.0 | 41.8 | 0.00 | 0.00 | 0.00 | 91 | 1008.2 |
| 20260504225141 | 8 | 271 | 29.0 | 53.1 | 0.00 | 0.00 | 0.00 | 90 | 1008.1 |
| 20260504224133 | 8 | 273 | 30.6 | 46.7 | 0.00 | 0.00 | 0.00 | 90 | 1007.9 |
| 20260504223127 | 8 | 252 | 32.2 | 53.1 | 0.00 | 0.00 | 0.00 | 90 | 1007.9 |
| 20260504222151 | 8 | 269 | 32.2 | 49.9 | 0.00 | 0.00 | 0.00 | 90 | 1008.0 |
| 20260504221127 | 8 | 281 | 35.4 | 48.3 | 0.00 | 0.00 | 0.00 | 89 | 1008.0 |
| 20260504220150 | 8 | 267 | 33.8 | 48.3 | 0.00 | 0.00 | 0.00 | 90 | 1007.9 |
| 20260504215204 | 8 | 291 | 30.6 | 48.3 | 0.00 | 0.00 | 0.00 | 90 | 1007.9 |
| 20260504214136 | 9 | 311 | 35.4 | 46.7 | 0.00 | 0.00 | 0.00 | 91 | 1007.9 |
| 20260504213159 | 9 | 263 | 32.2 | 43.5 | 0.00 | 0.00 | 0.00 | 91 | 1007.9 |
| 20260504212133 | 9 | 279 | 30.6 | 48.3 | 0.00 | 0.00 | 0.00 | 91 | 1007.9 |
| 20260504211138 | 9 | 254 | 27.4 | 46.7 | 0.00 | 0.00 | 0.00 | 91 | 1007.9 |
| 20260504210153 | 9 | 260 | 29.0 | 46.7 | 0.00 | 0.00 | 0.00 | 90 | 1007.7 |
| 20260504205132 | 9 | 261 | 29.0 | 49.9 | 0.00 | 0.00 | 0.00 | 90 | 1007.9 |
| 20260504204145 | 9 | 247 | 32.2 | 48.3 | 0.00 | 0.00 | 0.00 | 91 | 1007.9 |
| 20260504203135 | 9 | 265 | 35.4 | 54.7 | 0.00 | 0.00 | 0.00 | 91 | 1007.8 |
| 20260504202138 | 9 | 292 | 33.8 | 48.3 | 0.00 | 0.00 | 0.00 | 91 | 1007.9 |
| 20260504201133 | 9 | 265 | 37.0 | 49.9 | 0.00 | 0.00 | 0.00 | 91 | 1007.9 |
| 20260504200158 | 9 | 273 | 37.0 | 48.3 | 0.00 | 0.00 | 0.00 | 92 | 1007.9 |
| 20260504195129 | 9 | 263 | 40.2 | 54.7 | 0.00 | 0.00 | 0.00 | 91 | 1007.9 |
| 20260504194130 | 9 | 245 | 33.8 | 53.1 | 0.00 | 0.00 | 0.00 | 91 | 1007.8 |
| 20260504193143 | 9 | 256 | 45.1 | 53.1 | 0.00 | 0.00 | 0.00 | 91 | 1007.8 |
| 20260504192147 | 9 | 248 | 40.2 | 51.5 | 0.00 | 0.00 | 0.00 | 91 | 1007.8 |
| 20260504191143 | 9 | 246 | 30.6 | 51.5 | 0.00 | 0.00 | 0.00 | 91 | 1007.7 |
| 20260504190134 | 9 | 278 | 35.4 | 53.1 | 0.00 | 0.00 | 0.00 | 91 | 1007.7 |
| 20260504185128 | 9 | 254 | 35.4 | 49.9 | 0.00 | 0.00 | 0.00 | 91 | 1007.7 |
| 20260504184145 | 9 | 247 | 35.4 | 48.3 | 0.00 | 0.00 | 0.00 | 91 | 1007.8 |
| 20260504183138 | 10 | 251 | 38.6 | 46.7 | 0.00 | 0.00 | 0.00 | 90 | 1007.8 |
| 20260504182142 | 10 | 248 | 37.0 | 51.5 | 0.00 | 0.00 | 0.00 | 90 | 1007.7 |
| 20260504181138 | 10 | 258 | 38.6 | 48.3 | 0.00 | 0.00 | 0.00 | 89 | 1007.7 |
| 20260504180141 | 10 | 250 | 29.0 | 46.7 | 0.00 | 0.00 | 0.00 | 89 | 1007.7 |
| 20260504175135 | 10 | 263 | 33.8 | 49.9 | 0.00 | 0.00 | 0.00 | 88 | 1007.7 |